User: anonymous   Login
Location: Montr�al
(45.5000°N, 73.5830°W)
Time: 15:40:04
(UTC-04:00)
Language:

Cosmos 2369 - Orbit

View from above orbital plane
View from above orbital plane
View from above satellite
View from above satellite

Ground track
Ground track

The orbit data is extracted from the following two-line orbital elements,

1 26069U 00006A   17235.45854087 -.00000232  00000-0 -98030-4 0  9991
2 26069  70.9942 218.1412 0008720 139.6346 220.5424 14.13359228905623
Epoch (UTC): 23 August 2017 11:00:17
Eccentricity: 0.0008720
inclination: 70.9942°
perigee height: 841 km
apogee height: 854 km
right ascension of ascending node: 218.1412°
argument of perigee: 139.6346°
revolutions per day: 14.13359228
mean anomaly at epoch: 220.5424°
orbit number at epoch: 90562

The dashed part of the orbit path shows where the satellite is in the earth's shadow,  

DLR